Voltar ao catálogo

STARLINK-31860

AtivoComunicaçõesVLEO
NORAD 59670·PAYLOAD·🇺🇸 United States

Lançado May 6, 2024 de Cape Canaveral Space Force Station

Loading…

Próximas Passagens (próximas 24 horas)

TLE

AtualizadoSource: CelesTrak SupGP

Época: Sep 15, 2026, 02:21 UTC

1 59670C 24084S   26258.09840278 -.00029628  00000+0 -10726-2 0  2580
2 59670  43.0012  48.6431 0001430 277.3295 342.3373 15.27610382    19

Acompanhe STARLINK-31860 em tempo real com AllMySat

Download on the App Store